Wetterdaten: Dienstag, 14.08.2012
Datum Zeit Temperatur Luftfeuchte Regen Wind Richtung Richtung Taupunkt Windchill Windben
14.08.2012 00:00 11,9 C 81 % 0,0 l/m 0,2 km/h (0 Bft) NO 45 8,7 C 10,9 C 0,0 km/h (0 Bft)
14.08.2012 00:05 11,5 C 80 % 0,0 l/m 0,0 km/h (0 Bft) N-NW 337 8,2 C 10,9 C 0,0 km/h (0 Bft)
14.08.2012 00:10 11,2 C 80 % 0,0 l/m 0,0 km/h (0 Bft) W 270 7,9 C 10,8 C 0,0 km/h (0 Bft)
14.08.2012 00:15 11,1 C 81 % 0,0 l/m 0,0 km/h (0 Bft) SO 135 8,0 C 10,6 C 0,0 km/h (0 Bft)
14.08.2012 00:20 11,2 C 81 % 0,0 l/m 0,0 km/h (0 Bft) N 360 8,1 C 10,6 C 0,0 km/h (0 Bft)
14.08.2012 00:25 11,3 C 82 % 0,0 l/m 0,0 km/h (0 Bft) NW 315 8,3 C 10,6 C 0,0 km/h (0 Bft)
14.08.2012 00:30 11,3 C 82 % 0,0 l/m 0,0 km/h (0 Bft) NW 315 8,3 C 10,7 C 0,0 km/h (0 Bft)
14.08.2012 00:35 11,3 C 82 % 0,0 l/m 0,0 km/h (0 Bft) S 180 8,3 C 10,7 C 0,0 km/h (0 Bft)
14.08.2012 00:40 11,1 C 83 % 0,0 l/m 0,0 km/h (0 Bft) S 180 8,3 C 10,5 C 0,0 km/h (0 Bft)
14.08.2012 00:45 11,1 C 84 % 0,0 l/m 0,0 km/h (0 Bft) N 360 8,5 C 10,4 C 0,0 km/h (0 Bft)
14.08.2012 00:50 11,0 C 83 % 0,0 l/m 0,0 km/h (0 Bft) N-NO 22 8,2 C 10,4 C 0,0 km/h (0 Bft)
14.08.2012 00:55 11,0 C 83 % 0,0 l/m 0,0 km/h (0 Bft) O 90 8,2 C 10,3 C 0,0 km/h (0 Bft)
14.08.2012 01:00 11,0 C 83 % 0,0 l/m 0,0 km/h (0 Bft) W-SW 247 8,2 C 10,3 C 0,0 km/h (0 Bft)
14.08.2012 01:05 10,9 C 84 % 0,0 l/m 0,0 km/h (0 Bft) NO 45 8,3 C 10,3 C 0,0 km/h (0 Bft)
14.08.2012 01:10 10,9 C 84 % 0,0 l/m 0,0 km/h (0 Bft) NO 45 8,3 C 10,3 C 0,0 km/h (0 Bft)
14.08.2012 01:15 11,0 C 84 % 0,0 l/m 0,0 km/h (0 Bft) NO 45 8,4 C 10,3 C 0,0 km/h (0 Bft)
14.08.2012 01:20 11,0 C 84 % 0,0 l/m 0,0 km/h (0 Bft) W-SW 247 8,4 C 10,3 C 0,0 km/h (0 Bft)
14.08.2012 01:25 10,9 C 84 % 0,0 l/m 0,0 km/h (0 Bft) NW 315 8,3 C 10,3 C 0,0 km/h (0 Bft)
14.08.2012 01:30 11,0 C 84 % 0,0 l/m 0,0 km/h (0 Bft) N-NW 337 8,4 C 10,3 C 0,0 km/h (0 Bft)
14.08.2012 01:35 11,3 C 85 % 0,0 l/m 0,0 km/h (0 Bft) W-NW 292 8,9 C 10,5 C 0,0 km/h (0 Bft)
14.08.2012 01:40 11,3 C 85 % 0,0 l/m 0,0 km/h (0 Bft) N-NW 337 8,9 C 10,7 C 0,0 km/h (0 Bft)
14.08.2012 01:45 11,5 C 85 % 0,0 l/m 0,0 km/h (0 Bft) SO 135 9,1 C 10,8 C 0,0 km/h (0 Bft)
14.08.2012 01:50 11,4 C 85 % 0,0 l/m 0,0 km/h (0 Bft) N 360 9,0 C 10,8 C 0,0 km/h (0 Bft)
14.08.2012 01:55 11,5 C 85 % 0,0 l/m 0,2 km/h (0 Bft) NW 315 9,1 C 10,9 C 0,0 km/h (0 Bft)
14.08.2012 02:00 11,3 C 85 % 0,0 l/m 0,2 km/h (0 Bft) S-SO 157 8,9 C 10,9 C 0,0 km/h (0 Bft)
14.08.2012 02:05 11,2 C 85 % 0,0 l/m 0,0 km/h (0 Bft) S-SO 157 8,8 C 10,8 C 0,0 km/h (0 Bft)
14.08.2012 02:10 11,1 C 85 % 0,0 l/m 0,0 km/h (0 Bft) W 270 8,7 C 10,7 C 0,0 km/h (0 Bft)
14.08.2012 02:15 11,0 C 85 % 0,0 l/m 0,0 km/h (0 Bft) W-NW 292 8,6 C 10,5 C 0,0 km/h (0 Bft)
14.08.2012 02:20 11,0 C 85 % 0,0 l/m 0,0 km/h (0 Bft) W 270 8,6 C 10,3 C 0,0 km/h (0 Bft)
14.08.2012 02:25 11,1 C 85 % 0,0 l/m 0,0 km/h (0 Bft) O-NO 67 8,7 C 10,3 C 0,0 km/h (0 Bft)
14.08.2012 02:30 11,1 C 85 % 0,0 l/m 0,0 km/h (0 Bft) S-SO 157 8,7 C 10,3 C 0,0 km/h (0 Bft)
14.08.2012 02:35 11,0 C 85 % 0,0 l/m 0,0 km/h (0 Bft) W 270 8,6 C 10,3 C 0,0 km/h (0 Bft)
14.08.2012 02:40 11,0 C 85 % 0,0 l/m 0,0 km/h (0 Bft) N 360 8,6 C 10,3 C 0,0 km/h (0 Bft)
14.08.2012 02:45 11,0 C 86 % 0,0 l/m 0,2 km/h (0 Bft) N-NW 337 8,7 C 10,2 C 0,0 km/h (0 Bft)
14.08.2012 02:50 10,9 C 86 % 0,0 l/m 0,2 km/h (0 Bft) NO 45 8,7 C 10,3 C 0,0 km/h (0 Bft)
14.08.2012 02:55 11,0 C 86 % 0,0 l/m 0,0 km/h (0 Bft) S-SW 202 8,7 C 10,3 C 0,0 km/h (0 Bft)
14.08.2012 03:00 10,8 C 86 % 0,0 l/m 0,0 km/h (0 Bft) S 180 8,6 C 10,3 C 0,0 km/h (0 Bft)
14.08.2012 03:05 10,6 C 86 % 0,0 l/m 0,2 km/h (0 Bft) NO 45 8,4 C 10,1 C 1,6 km/h (1 Bft)
14.08.2012 03:10 11,0 C 86 % 0,0 l/m 0,3 km/h (0 Bft) NO 45 8,7 C 10,1 C 1,6 km/h (1 Bft)
14.08.2012 03:15 11,1 C 86 % 0,0 l/m 0,3 km/h (0 Bft) N-NW 337 8,8 C 10,2 C 0,0 km/h (0 Bft)
14.08.2012 03:20 10,7 C 86 % 0,0 l/m 0,0 km/h (0 Bft) N 360 8,5 C 10,1 C 0,0 km/h (0 Bft)
14.08.2012 03:25 10,5 C 86 % 0,0 l/m 0,0 km/h (0 Bft) SO 135 8,3 C 10,0 C 0,0 km/h (0 Bft)
14.08.2012 03:30 10,3 C 86 % 0,0 l/m 0,0 km/h (0 Bft) N 360 8,1 C 9,9 C 0,0 km/h (0 Bft)
14.08.2012 03:35 10,2 C 86 % 0,0 l/m 0,0 km/h (0 Bft) W 270 8,0 C 9,7 C 0,0 km/h (0 Bft)
14.08.2012 03:40 10,1 C 86 % 0,0 l/m 0,0 km/h (0 Bft) W-NW 292 7,9 C 9,6 C 0,0 km/h (0 Bft)
14.08.2012 03:45 10,0 C 86 % 0,0 l/m 0,0 km/h (0 Bft) NW 315 7,8 C 9,5 C 0,0 km/h (0 Bft)
14.08.2012 03:50 10,1 C 87 % 0,0 l/m 0,0 km/h (0 Bft) N-NO 22 8,0 C 9,5 C 0,0 km/h (0 Bft)
14.08.2012 03:55 10,2 C 87 % 0,0 l/m 0,0 km/h (0 Bft) NO 45 8,1 C 9,6 C 0,0 km/h (0 Bft)
14.08.2012 04:00 10,1 C 87 % 0,0 l/m 0,0 km/h (0 Bft) SO 135 8,0 C 9,5 C 0,0 km/h (0 Bft)
14.08.2012 04:05 9,9 C 87 % 0,0 l/m 0,0 km/h (0 Bft) W 270 7,8 C 9,3 C 0,0 km/h (0 Bft)
14.08.2012 04:10 9,8 C 87 % 0,0 l/m 0,0 km/h (0 Bft) N 360 7,7 C 9,2 C 0,0 km/h (0 Bft)
14.08.2012 04:15 9,9 C 87 % 0,0 l/m 0,0 km/h (0 Bft) O-NO 67 7,8 C 9,2 C 0,0 km/h (0 Bft)
14.08.2012 04:20 9,7 C 87 % 0,0 l/m 0,0 km/h (0 Bft) N 360 7,6 C 9,2 C 0,0 km/h (0 Bft)
14.08.2012 04:25 9,6 C 87 % 0,0 l/m 0,0 km/h (0 Bft) N 360 7,5 C 9,1 C 0,0 km/h (0 Bft)
14.08.2012 04:30 9,4 C 87 % 0,0 l/m 0,0 km/h (0 Bft) W-SW 247 7,3 C 9,0 C 0,0 km/h (0 Bft)
14.08.2012 04:35 9,2 C 87 % 0,0 l/m 0,0 km/h (0 Bft) O-SO 112 7,2 C 8,7 C 0,0 km/h (0 Bft)
14.08.2012 04:40 9,2 C 87 % 0,0 l/m 0,0 km/h (0 Bft) O-SO 112 7,2 C 8,6 C 0,0 km/h (0 Bft)
14.08.2012 04:45 9,3 C 88 % 0,0 l/m 0,0 km/h (0 Bft) N-NO 22 7,4 C 8,6 C 0,0 km/h (0 Bft)
14.08.2012 04:50 9,3 C 88 % 0,0 l/m 0,0 km/h (0 Bft) N-NO 22 7,4 C 8,6 C 0,0 km/h (0 Bft)
14.08.2012 04:55 9,3 C 88 % 0,0 l/m 0,0 km/h (0 Bft) SW 225 7,4 C 8,7 C 0,0 km/h (0 Bft)
14.08.2012 05:00 9,4 C 88 % 0,0 l/m 0,0 km/h (0 Bft) NO 45 7,5 C 8,8 C 0,0 km/h (0 Bft)
14.08.2012 05:05 9,7 C 89 % 0,0 l/m 0,0 km/h (0 Bft) NO 45 8,0 C 9,0 C 0,0 km/h (0 Bft)
14.08.2012 05:10 9,8 C 89 % 0,0 l/m 0,0 km/h (0 Bft) SO 135 8,1 C 9,0 C 0,0 km/h (0 Bft)
14.08.2012 05:15 9,9 C 89 % 0,0 l/m 0,0 km/h (0 Bft) N-NO 22 8,2 C 9,2 C 0,0 km/h (0 Bft)
14.08.2012 05:20 10,0 C 89 % 0,0 l/m 0,0 km/h (0 Bft) W-SW 247 8,3 C 9,2 C 0,0 km/h (0 Bft)
14.08.2012 05:25 9,9 C 89 % 0,0 l/m 0,0 km/h (0 Bft) W-SW 247 8,2 C 9,2 C 0,0 km/h (0 Bft)
14.08.2012 05:30 9,8 C 89 % 0,0 l/m 0,0 km/h (0 Bft) N 360 8,1 C 9,2 C 0,0 km/h (0 Bft)
14.08.2012 05:35 9,8 C 89 % 0,0 l/m 0,0 km/h (0 Bft) N 360 8,1 C 9,2 C 0,0 km/h (0 Bft)
14.08.2012 05:40 9,9 C 89 % 0,0 l/m 0,0 km/h (0 Bft) S 180 8,2 C 9,2 C 0,0 km/h (0 Bft)
14.08.2012 05:45 10,1 C 88 % 0,0 l/m 0,0 km/h (0 Bft) N 360 8,2 C 9,5 C 0,0 km/h (0 Bft)
14.08.2012 05:50 10,2 C 89 % 0,0 l/m 0,0 km/h (0 Bft) W-SW 247 8,5 C 9,5 C 0,0 km/h (0 Bft)
14.08.2012 05:55 10,3 C 89 % 0,0 l/m 0,2 km/h (0 Bft) O-SO 112 8,6 C 9,7 C 1,9 km/h (1 Bft)
14.08.2012 06:00 10,4 C 89 % 0,0 l/m 0,2 km/h (0 Bft) SO 135 8,7 C 9,8 C 0,0 km/h (0 Bft)
14.08.2012 06:05 10,5 C 89 % 0,0 l/m 0,0 km/h (0 Bft) NO 45 8,8 C 9,9 C 0,0 km/h (0 Bft)
14.08.2012 06:10 10,5 C 89 % 0,0 l/m 0,0 km/h (0 Bft) SO 135 8,8 C 9,9 C 0,0 km/h (0 Bft)
14.08.2012 06:15 10,4 C 88 % 0,0 l/m 0,6 km/h (0 Bft) O-SO 112 8,5 C 9,9 C 2,7 km/h (1 Bft)
14.08.2012 06:20 10,2 C 88 % 0,0 l/m 0,6 km/h (0 Bft) NW 315 8,3 C 9,9 C 0,0 km/h (0 Bft)
14.08.2012 06:25 10,2 C 89 % 0,0 l/m 0,3 km/h (0 Bft) N 360 8,5 C 9,8 C 0,0 km/h (0 Bft)
14.08.2012 06:30 10,0 C 89 % 0,0 l/m 0,3 km/h (0 Bft) SO 135 8,3 C 9,6 C 0,0 km/h (0 Bft)
14.08.2012 06:35 9,9 C 89 % 0,0 l/m 0,0 km/h (0 Bft) N-NW 337 8,2 C 9,5 C 0,0 km/h (0 Bft)
14.08.2012 06:40 9,9 C 89 % 0,0 l/m 0,0 km/h (0 Bft) N-NW 337 8,2 C 9,5 C 0,0 km/h (0 Bft)
14.08.2012 06:45 9,9 C 89 % 0,0 l/m 0,0 km/h (0 Bft) W-SW 247 8,2 C 10,3 C 0,0 km/h (0 Bft)
14.08.2012 06:50 9,9 C 89 % 0,0 l/m 0,0 km/h (0 Bft) W-SW 247 8,2 C 11,0 C 0,0 km/h (0 Bft)
14.08.2012 06:55 10,1 C 89 % 0,0 l/m 0,0 km/h (0 Bft) N-NW 337 8,4 C 11,7 C 0,0 km/h (0 Bft)
14.08.2012 07:00 10,2 C 89 % 0,0 l/m 0,0 km/h (0 Bft) N-NW 337 8,5 C 12,5 C 0,0 km/h (0 Bft)
14.08.2012 07:05 10,4 C 89 % 0,0 l/m 0,0 km/h (0 Bft) W-NW 292 8,7 C 13,5 C 0,0 km/h (0 Bft)
14.08.2012 07:10 10,4 C 89 % 0,0 l/m 0,0 km/h (0 Bft) W 270 8,7 C 14,0 C 0,0 km/h (0 Bft)
14.08.2012 07:15 10,6 C 88 % 0,0 l/m 0,0 km/h (0 Bft) NW 315 8,7 C 14,8 C 0,0 km/h (0 Bft)
14.08.2012 07:20 10,9 C 89 % 0,0 l/m 0,0 km/h (0 Bft) N-NW 337 9,2 C 15,2 C 0,0 km/h (0 Bft)
14.08.2012 07:25 11,2 C 88 % 0,0 l/m 0,0 km/h (0 Bft) N 360 9,3 C 16,0 C 0,0 km/h (0 Bft)
14.08.2012 07:30 11,4 C 88 % 0,0 l/m 0,0 km/h (0 Bft) NO 45 9,5 C 16,6 C 0,0 km/h (0 Bft)
14.08.2012 07:35 12,1 C 88 % 0,0 l/m 0,0 km/h (0 Bft) N-NW 337 10,2 C 17,6 C 0,0 km/h (0 Bft)
14.08.2012 07:40 13,3 C 87 % 0,0 l/m 0,0 km/h (0 Bft) N 360 11,2 C 18,0 C 0,0 km/h (0 Bft)
14.08.2012 07:45 16,1 C 83 % 0,0 l/m 0,0 km/h (0 Bft) N 360 13,2 C 18,8 C 0,0 km/h (0 Bft)
14.08.2012 07:50 17,5 C 81 % 0,0 l/m 0,0 km/h (0 Bft) O-SO 112 14,2 C 19,3 C 0,0 km/h (0 Bft)
14.08.2012 07:55 18,0 C 76 % 0,0 l/m 0,0 km/h (0 Bft) O-SO 112 13,7 C 20,2 C 0,0 km/h (0 Bft)
14.08.2012 08:00 18,7 C 74 % 0,0 l/m 0,0 km/h (0 Bft) O 90 14,0 C 20,8 C 0,0 km/h (0 Bft)
14.08.2012 08:05 18,8 C 70 % 0,0 l/m 0,0 km/h (0 Bft) N-NW 337 13,2 C 21,5 C 0,0 km/h (0 Bft)
14.08.2012 08:10 18,8 C 66 % 0,0 l/m 0,0 km/h (0 Bft) W-NW 292 12,3 C 21,7 C 0,0 km/h (0 Bft)
14.08.2012 08:15 19,6 C 66 % 0,0 l/m 0,0 km/h (0 Bft) S-SW 202 13,1 C 22,2 C 0,0 km/h (0 Bft)
14.08.2012 08:20 20,5 C 66 % 0,0 l/m 0,0 km/h (0 Bft) O-NO 67 13,9 C 23,0 C 0,0 km/h (0 Bft)
14.08.2012 08:25 20,9 C 62 % 0,0 l/m 0,0 km/h (0 Bft) W-NW 292 13,3 C 24,2 C 0,0 km/h (0 Bft)
14.08.2012 08:30 20,7 C 63 % 0,0 l/m 0,0 km/h (0 Bft) SO 135 13,4 C 24,3 C 0,0 km/h (0 Bft)
14.08.2012 08:35 21,0 C 59 % 0,0 l/m 0,0 km/h (0 Bft) N 360 12,7 C 24,8 C 0,0 km/h (0 Bft)
14.08.2012 08:40 21,1 C 58 % 0,0 l/m 0,0 km/h (0 Bft) N 360 12,9 C 25,0 C 0,0 km/h (0 Bft)
14.08.2012 08:45 20,4 C 58 % 0,0 l/m 0,0 km/h (0 Bft) NO 45 13,3 C 25,3 C 0,0 km/h (0 Bft)
14.08.2012 08:50 20,0 C 57 % 0,0 l/m 0,0 km/h (0 Bft) O-NO 67 13,4 C 25,5 C 0,0 km/h (0 Bft)
14.08.2012 08:55 19,9 C 56 % 0,0 l/m 0,0 km/h (0 Bft) O 90 13,0 C 25,8 C 0,0 km/h (0 Bft)
14.08.2012 09:00 20,2 C 55 % 0,0 l/m 0,0 km/h (0 Bft) NW 315 13,2 C 26,3 C 0,0 km/h (0 Bft)
14.08.2012 09:05 20,4 C 55 % 0,0 l/m 0,0 km/h (0 Bft) W-NW 292 13,7 C 26,4 C 0,0 km/h (0 Bft)
14.08.2012 09:10 20,8 C 51 % 0,0 l/m 0,2 km/h (0 Bft) SW 225 12,9 C 26,8 C 0,0 km/h (0 Bft)
14.08.2012 09:15 20,5 C 57 % 0,0 l/m 0,6 km/h (0 Bft) SW 225 12,1 C 25,8 C 4,0 km/h (1 Bft)
14.08.2012 09:20 20,7 C 57 % 0,0 l/m 1,1 km/h (1 Bft) W 270 12,2 C 24,6 C 2,9 km/h (1 Bft)
14.08.2012 09:25 20,4 C 59 % 0,0 l/m 1,3 km/h (1 Bft) W-NW 292 12,3 C 23,3 C 2,1 km/h (1 Bft)
14.08.2012 09:30 20,7 C 56 % 0,0 l/m 1,1 km/h (1 Bft) W 270 13,6 C 23,3 C 2,9 km/h (1 Bft)
14.08.2012 09:35 21,3 C 50 % 0,0 l/m 1,6 km/h (1 Bft) W 270 13,5 C 24,5 C 4,2 km/h (1 Bft)
14.08.2012 09:40 21,4 C 49 % 0,0 l/m 1,6 km/h (1 Bft) N-NW 337 12,8 C 25,6 C 2,7 km/h (1 Bft)
14.08.2012 09:45 21,4 C 46 % 0,0 l/m 2,9 km/h (1 Bft) S-SW 202 11,9 C 25,3 C 8,2 km/h (2 Bft)
14.08.2012 09:50 21,5 C 47 % 0,0 l/m 4,5 km/h (1 Bft) S-SW 202 12,3 C 24,9 C 6,0 km/h (2 Bft)
14.08.2012 09:55 21,7 C 47 % 0,0 l/m 3,9 km/h (1 Bft) W-NW 292 12,4 C 25,0 C 4,3 km/h (1 Bft)
14.08.2012 10:00 21,7 C 46 % 0,0 l/m 3,5 km/h (1 Bft) O 90 11,7 C 24,8 C 2,4 km/h (1 Bft)
14.08.2012 10:05 22,0 C 45 % 0,0 l/m 3,2 km/h (1 Bft) W-SW 247 11,7 C 25,3 C 5,3 km/h (1 Bft)
14.08.2012 10:10 22,1 C 45 % 0,0 l/m 2,7 km/h (1 Bft) O-SO 112 11,1 C 25,3 C 3,7 km/h (1 Bft)
14.08.2012 10:15 22,1 C 45 % 0,0 l/m 3,4 km/h (1 Bft) N-NW 337 11,7 C 25,5 C 3,2 km/h (1 Bft)
14.08.2012 10:20 22,3 C 45 % 0,0 l/m 3,4 km/h (1 Bft) S 180 11,8 C 25,6 C 2,6 km/h (1 Bft)
14.08.2012 10:25 22,3 C 45 % 0,0 l/m 4,2 km/h (1 Bft) W 270 11,7 C 25,3 C 9,2 km/h (2 Bft)
14.08.2012 10:30 22,3 C 45 % 0,0 l/m 4,8 km/h (1 Bft) W-SW 247 11,2 C 25,0 C 10,5 km/h (2 Bft)
14.08.2012 10:35 22,4 C 46 % 0,0 l/m 5,5 km/h (1 Bft) W-SW 247 11,5 C 24,8 C 7,2 km/h (2 Bft)
14.08.2012 10:40 22,5 C 45 % 0,0 l/m 5,1 km/h (1 Bft) W 270 11,1 C 24,8 C 10,6 km/h (2 Bft)
14.08.2012 10:45 22,5 C 45 % 0,0 l/m 4,5 km/h (1 Bft) W-SW 247 10,9 C 24,8 C 7,9 km/h (2 Bft)
14.08.2012 10:50 22,5 C 43 % 0,0 l/m 4,8 km/h (1 Bft) N-NO 22 9,8 C 24,4 C 2,1 km/h (1 Bft)
14.08.2012 10:55 22,3 C 44 % 0,0 l/m 5,3 km/h (1 Bft) S-SW 202 9,6 C 23,9 C 7,6 km/h (2 Bft)
14.08.2012 11:00 22,5 C 43 % 0,0 l/m 5,6 km/h (1 Bft) W-SW 247 10,0 C 24,1 C 9,8 km/h (2 Bft)
14.08.2012 11:05 22,6 C 41 % 0,0 l/m 6,1 km/h (2 Bft) O-NO 67 9,1 C 24,3 C 11,1 km/h (2 Bft)
14.08.2012 11:10 22,9 C 42 % 0,0 l/m 6,3 km/h (2 Bft) W-SW 247 9,7 C 24,3 C 7,9 km/h (2 Bft)
14.08.2012 11:15 22,8 C 44 % 0,0 l/m 6,0 km/h (2 Bft) W 270 9,9 C 24,3 C 11,7 km/h (2 Bft)
14.08.2012 11:20 23,1 C 43 % 0,0 l/m 5,3 km/h (1 Bft) W 270 9,8 C 24,5 C 8,2 km/h (2 Bft)
14.08.2012 11:25 23,0 C 42 % 0,0 l/m 5,3 km/h (1 Bft) N-NW 337 9,4 C 24,7 C 7,1 km/h (2 Bft)
14.08.2012 11:30 23,0 C 42 % 0,0 l/m 6,0 km/h (2 Bft) W 270 9,4 C 24,6 C 6,0 km/h (2 Bft)
14.08.2012 11:35 23,6 C 42 % 0,0 l/m 5,1 km/h (1 Bft) N 360 10,1 C 24,9 C 8,0 km/h (2 Bft)
14.08.2012 11:40 23,9 C 41 % 0,0 l/m 4,2 km/h (1 Bft) S 180 10,0 C 25,3 C 4,2 km/h (1 Bft)
14.08.2012 11:45 23,8 C 45 % 0,0 l/m 3,9 km/h (1 Bft) W-SW 247 11,1 C 25,6 C 6,8 km/h (2 Bft)
14.08.2012 11:50 23,0 C 38 % 0,0 l/m 4,5 km/h (1 Bft) NW 315 7,9 C 25,2 C 5,0 km/h (1 Bft)
14.08.2012 11:55 22,8 C 43 % 0,0 l/m 4,3 km/h (1 Bft) NW 315 9,6 C 24,8 C 3,9 km/h (1 Bft)
14.08.2012 12:00 23,8 C 39 % 0,0 l/m 4,2 km/h (1 Bft) W-NW 292 9,0 C 25,2 C 8,7 km/h (2 Bft)
14.08.2012 12:05 23,8 C 40 % 0,0 l/m 4,8 km/h (1 Bft) W 270 9,4 C 25,5 C 6,4 km/h (2 Bft)
14.08.2012 12:10 23,8 C 37 % 0,0 l/m 6,0 km/h (2 Bft) W-SW 247 8,2 C 25,3 C 7,2 km/h (2 Bft)
14.08.2012 12:15 23,9 C 36 % 0,0 l/m 5,8 km/h (2 Bft) W-SW 247 7,9 C 25,4 C 12,9 km/h (3 Bft)
14.08.2012 12:20 23,8 C 35 % 0,0 l/m 5,3 km/h (1 Bft) W-SW 247 7,4 C 25,6 C 12,1 km/h (2 Bft)
14.08.2012 12:25 23,9 C 38 % 0,0 l/m 5,3 km/h (1 Bft) W-NW 292 8,7 C 25,5 C 2,7 km/h (1 Bft)
14.08.2012 12:30 23,8 C 37 % 0,0 l/m 6,0 km/h (2 Bft) W-NW 292 8,2 C 25,6 C 9,7 km/h (2 Bft)
14.08.2012 12:35 24,2 C 37 % 0,0 l/m 6,0 km/h (2 Bft) W-SW 247 8,6 C 25,3 C 14,5 km/h (3 Bft)
14.08.2012 12:40 24,1 C 37 % 0,0 l/m 5,8 km/h (2 Bft) W-SW 247 8,5 C 25,6 C 8,7 km/h (2 Bft)
14.08.2012 12:45 24,1 C 38 % 0,0 l/m 5,6 km/h (1 Bft) SO 135 8,9 C 25,3 C 4,7 km/h (1 Bft)
14.08.2012 12:50 24,2 C 37 % 0,0 l/m 6,1 km/h (2 Bft) N-NW 337 8,6 C 25,6 C 5,5 km/h (1 Bft)
14.08.2012 12:55 24,3 C 36 % 0,0 l/m 5,1 km/h (1 Bft) N-NO 22 8,3 C 25,7 C 9,2 km/h (2 Bft)
14.08.2012 13:00 24,2 C 38 % 0,0 l/m 4,8 km/h (1 Bft) NW 315 9,0 C 25,8 C 5,8 km/h (2 Bft)
14.08.2012 13:05 24,2 C 38 % 0,0 l/m 5,0 km/h (1 Bft) W-SW 247 9,0 C 26,0 C 6,0 km/h (2 Bft)
14.08.2012 13:10 24,1 C 37 % 0,0 l/m 5,5 km/h (1 Bft) S 180 8,5 C 26,0 C 6,1 km/h (2 Bft)
14.08.2012 13:15 24,3 C 37 % 0,0 l/m 6,1 km/h (2 Bft) O 90 8,7 C 25,8 C 5,0 km/h (1 Bft)
14.08.2012 13:20 24,2 C 35 % 0,0 l/m 4,8 km/h (1 Bft) W-SW 247 7,8 C 26,3 C 5,3 km/h (1 Bft)
14.08.2012 13:25 23,9 C 36 % 0,0 l/m 4,2 km/h (1 Bft) W 270 7,9 C 26,1 C 3,7 km/h (1 Bft)
14.08.2012 13:30 24,2 C 34 % 0,0 l/m 4,3 km/h (1 Bft) N 360 7,3 C 25,9 C 2,4 km/h (1 Bft)
14.08.2012 13:35 24,2 C 32 % 0,0 l/m 4,5 km/h (1 Bft) N-NW 337 6,5 C 25,4 C 5,1 km/h (1 Bft)
14.08.2012 13:40 24,2 C 34 % 0,0 l/m 4,7 km/h (1 Bft) N-NW 337 7,3 C 25,2 C 8,7 km/h (2 Bft)
14.08.2012 13:45 24,5 C 32 % 0,0 l/m 4,3 km/h (1 Bft) NW 315 6,7 C 24,9 C 6,6 km/h (2 Bft)
14.08.2012 13:50 24,8 C 33 % 0,0 l/m 4,3 km/h (1 Bft) W-SW 247 7,4 C 24,9 C 2,9 km/h (1 Bft)
14.08.2012 13:55 24,9 C 33 % 0,0 l/m 4,3 km/h (1 Bft) S-SW 202 7,5 C 25,2 C 6,3 km/h (2 Bft)
14.08.2012 14:00 25,1 C 34 % 0,0 l/m 4,2 km/h (1 Bft) S 180 8,1 C 25,5 C 2,6 km/h (1 Bft)
14.08.2012 14:05 25,3 C 36 % 0,0 l/m 4,5 km/h (1 Bft) W-SW 247 9,1 C 25,9 C 8,4 km/h (2 Bft)
14.08.2012 14:10 24,9 C 36 % 0,0 l/m 4,7 km/h (1 Bft) NW 315 8,8 C 25,8 C 5,8 km/h (2 Bft)
14.08.2012 14:15 25,1 C 36 % 0,0 l/m 4,2 km/h (1 Bft) N-NO 22 9,0 C 26,1 C 3,9 km/h (1 Bft)
14.08.2012 14:20 24,8 C 36 % 0,0 l/m 4,5 km/h (1 Bft) W-NW 292 8,7 C 26,2 C 9,5 km/h (2 Bft)
14.08.2012 14:25 24,9 C 35 % 0,0 l/m 5,6 km/h (1 Bft) SW 225 8,4 C 25,9 C 5,1 km/h (1 Bft)
14.08.2012 14:30 25,4 C 36 % 0,0 l/m 4,8 km/h (1 Bft) W-NW 292 9,2 C 26,2 C 5,8 km/h (2 Bft)
14.08.2012 14:35 24,6 C 35 % 0,0 l/m 4,0 km/h (1 Bft) S-SW 202 8,1 C 26,4 C 2,9 km/h (1 Bft)
14.08.2012 14:40 24,6 C 34 % 0,0 l/m 5,3 km/h (1 Bft) NW 315 7,7 C 26,2 C 13,8 km/h (3 Bft)
14.08.2012 14:45 24,9 C 35 % 0,0 l/m 5,6 km/h (1 Bft) W-NW 292 8,4 C 25,9 C 5,1 km/h (1 Bft)
14.08.2012 14:50 24,9 C 34 % 0,0 l/m 5,0 km/h (1 Bft) N-NW 337 7,9 C 25,8 C 8,2 km/h (2 Bft)
14.08.2012 14:55 24,8 C 34 % 0,0 l/m 5,0 km/h (1 Bft) NW 315 7,9 C 25,8 C 4,8 km/h (1 Bft)
14.08.2012 15:00 24,7 C 35 % 0,0 l/m 5,0 km/h (1 Bft) W-SW 247 8,2 C 25,9 C 5,5 km/h (1 Bft)
14.08.2012 15:05 25,1 C 35 % 0,0 l/m 5,3 km/h (1 Bft) N-NW 337 8,6 C 26,0 C 9,2 km/h (2 Bft)
14.08.2012 15:10 25,5 C 33 % 0,0 l/m 5,5 km/h (1 Bft) S-SO 157 8,0 C 26,0 C 1,9 km/h (1 Bft)
14.08.2012 15:15 25,0 C 35 % 0,0 l/m 4,5 km/h (1 Bft) S 180 8,5 C 26,3 C 4,0 km/h (1 Bft)
14.08.2012 15:20 25,3 C 35 % 0,0 l/m 3,4 km/h (1 Bft) W 270 8,7 C 26,5 C 1,6 km/h (1 Bft)
14.08.2012 15:25 25,0 C 35 % 0,0 l/m 4,3 km/h (1 Bft) W-SW 247 8,5 C 26,4 C 6,8 km/h (2 Bft)
14.08.2012 15:30 25,5 C 36 % 0,0 l/m 4,8 km/h (1 Bft) O 90 9,3 C 26,3 C 6,1 km/h (2 Bft)
14.08.2012 15:35 25,3 C 34 % 0,0 l/m 5,0 km/h (1 Bft) W-NW 292 8,3 C 26,5 C 9,5 km/h (2 Bft)
14.08.2012 15:40 25,2 C 35 % 0,0 l/m 5,0 km/h (1 Bft) SW 225 8,6 C 26,4 C 3,5 km/h (1 Bft)
14.08.2012 15:45 25,3 C 36 % 0,0 l/m 4,7 km/h (1 Bft) W-NW 292 9,1 C 26,7 C 5,6 km/h (1 Bft)
14.08.2012 15:50 25,3 C 36 % 0,0 l/m 3,2 km/h (1 Bft) W-NW 292 9,1 C 26,9 C 4,3 km/h (1 Bft)
14.08.2012 15:55 25,4 C 35 % 0,0 l/m 4,3 km/h (1 Bft) S 180 8,8 C 26,9 C 4,8 km/h (1 Bft)
14.08.2012 16:00 25,4 C 34 % 0,0 l/m 5,5 km/h (1 Bft) W-SW 247 8,4 C 26,8 C 8,2 km/h (2 Bft)
14.08.2012 16:05 24,9 C 34 % 0,0 l/m 5,6 km/h (1 Bft) S 180 7,9 C 26,5 C 4,7 km/h (1 Bft)
14.08.2012 16:10 25,0 C 34 % 0,0 l/m 5,3 km/h (1 Bft) W-SW 247 8,0 C 26,3 C 6,0 km/h (2 Bft)
14.08.2012 16:15 25,0 C 35 % 0,0 l/m 4,0 km/h (1 Bft) W 270 8,5 C 26,5 C 4,0 km/h (1 Bft)
14.08.2012 16:20 24,6 C 36 % 0,0 l/m 3,9 km/h (1 Bft) NW 315 8,5 C 26,9 C 4,2 km/h (1 Bft)
14.08.2012 16:25 24,8 C 36 % 0,0 l/m 3,7 km/h (1 Bft) W-NW 292 8,7 C 27,2 C 8,9 km/h (2 Bft)
14.08.2012 16:30 24,3 C 33 % 0,0 l/m 3,7 km/h (1 Bft) N 360 7,0 C 27,1 C 9,7 km/h (2 Bft)
14.08.2012 16:35 24,3 C 36 % 0,0 l/m 3,7 km/h (1 Bft) O-SO 112 8,3 C 27,5 C 8,7 km/h (2 Bft)
14.08.2012 16:40 24,0 C 36 % 0,0 l/m 3,5 km/h (1 Bft) S-SW 202 8,0 C 27,5 C 4,8 km/h (1 Bft)
14.08.2012 16:45 23,6 C 37 % 0,0 l/m 4,2 km/h (1 Bft) N-NW 337 8,0 C 27,5 C 4,5 km/h (1 Bft)
14.08.2012 16:50 23,3 C 39 % 0,0 l/m 4,2 km/h (1 Bft) NW 315 8,6 C 27,3 C 5,6 km/h (1 Bft)
14.08.2012 16:55 23,0 C 38 % 0,0 l/m 3,4 km/h (1 Bft) NO 45 7,9 C 27,5 C 0,0 km/h (0 Bft)
14.08.2012 17:00 23,0 C 38 % 0,0 l/m 3,5 km/h (1 Bft) W-SW 247 7,9 C 27,7 C 10,1 km/h (2 Bft)
14.08.2012 17:05 22,9 C 42 % 0,0 l/m 3,7 km/h (1 Bft) W-NW 292 9,3 C 27,5 C 5,6 km/h (1 Bft)
14.08.2012 17:10 22,7 C 42 % 0,0 l/m 4,5 km/h (1 Bft) W-SW 247 9,1 C 27,5 C 6,0 km/h (2 Bft)
14.08.2012 17:15 22,4 C 45 % 0,0 l/m 3,5 km/h (1 Bft) N-NW 337 9,9 C 27,4 C 2,1 km/h (1 Bft)
14.08.2012 17:20 22,5 C 44 % 0,0 l/m 2,6 km/h (1 Bft) SO 135 9,6 C 27,8 C 0,0 km/h (0 Bft)
14.08.2012 17:25 22,4 C 43 % 0,0 l/m 2,6 km/h (1 Bft) O 90 9,2 C 28,0 C 0,0 km/h (0 Bft)
14.08.2012 17:30 22,3 C 44 % 0,0 l/m 3,2 km/h (1 Bft) W 270 9,5 C 27,9 C 7,9 km/h (2 Bft)
14.08.2012 17:35 22,4 C 43 % 0,0 l/m 4,3 km/h (1 Bft) W-SW 247 9,2 C 27,3 C 3,9 km/h (1 Bft)
14.08.2012 17:40 22,3 C 45 % 0,0 l/m 4,5 km/h (1 Bft) W 270 9,8 C 27,3 C 6,9 km/h (2 Bft)
14.08.2012 17:45 22,1 C 46 % 0,0 l/m 3,7 km/h (1 Bft) S 180 9,9 C 27,2 C 4,5 km/h (1 Bft)
14.08.2012 17:50 21,9 C 46 % 0,0 l/m 3,4 km/h (1 Bft) W 270 9,7 C 27,2 C 5,8 km/h (2 Bft)
14.08.2012 17:55 22,1 C 45 % 0,0 l/m 3,1 km/h (1 Bft) W-NW 292 9,6 C 27,3 C 4,8 km/h (1 Bft)
14.08.2012 18:00 22,0 C 45 % 0,0 l/m 3,4 km/h (1 Bft) S 180 9,5 C 27,3 C 3,4 km/h (1 Bft)
14.08.2012 18:05 21,9 C 45 % 0,0 l/m 3,4 km/h (1 Bft) O-SO 112 9,4 C 27,5 C 0,0 km/h (0 Bft)
14.08.2012 18:10 21,5 C 47 % 0,0 l/m 2,7 km/h (1 Bft) N-NO 22 9,7 C 27,4 C 2,6 km/h (1 Bft)
14.08.2012 18:15 21,5 C 46 % 0,0 l/m 1,8 km/h (1 Bft) W-NW 292 9,4 C 27,5 C 3,5 km/h (1 Bft)
14.08.2012 18:20 21,4 C 48 % 0,0 l/m 2,4 km/h (1 Bft) W 270 9,9 C 27,3 C 2,1 km/h (1 Bft)
14.08.2012 18:25 21,2 C 48 % 0,0 l/m 2,9 km/h (1 Bft) W 270 9,7 C 27,0 C 5,8 km/h (2 Bft)
14.08.2012 18:30 21,2 C 47 % 0,0 l/m 1,9 km/h (1 Bft) NO 45 9,4 C 26,8 C 2,6 km/h (1 Bft)
14.08.2012 18:35 21,2 C 49 % 0,0 l/m 1,9 km/h (1 Bft) W 270 10,1 C 27,1 C 8,5 km/h (2 Bft)
14.08.2012 18:40 21,2 C 48 % 0,0 l/m 2,7 km/h (1 Bft) W 270 9,7 C 26,8 C 3,7 km/h (1 Bft)
14.08.2012 18:45 21,0 C 49 % 0,0 l/m 3,2 km/h (1 Bft) W-NW 292 9,9 C 26,7 C 5,5 km/h (1 Bft)
14.08.2012 18:50 21,0 C 49 % 0,0 l/m 2,9 km/h (1 Bft) W-NW 292 9,9 C 25,8 C 9,3 km/h (2 Bft)
14.08.2012 18:55 20,7 C 52 % 0,0 l/m 3,7 km/h (1 Bft) N-NW 337 10,5 C 24,4 C 2,6 km/h (1 Bft)
14.08.2012 19:00 20,7 C 49 % 0,0 l/m 3,1 km/h (1 Bft) W-NW 292 9,6 C 24,4 C 2,9 km/h (1 Bft)
14.08.2012 19:05 20,6 C 50 % 0,0 l/m 1,0 km/h (0 Bft) N-NW 337 9,8 C 25,0 C 2,7 km/h (1 Bft)
14.08.2012 19:10 20,7 C 51 % 0,0 l/m 1,1 km/h (1 Bft) N 360 10,2 C 25,6 C 3,7 km/h (1 Bft)
14.08.2012 19:15 20,8 C 51 % 0,0 l/m 1,6 km/h (1 Bft) S 180 10,3 C 25,8 C 2,6 km/h (1 Bft)
14.08.2012 19:20 20,6 C 52 % 0,0 l/m 1,8 km/h (1 Bft) W 270 10,4 C 25,3 C 2,9 km/h (1 Bft)
14.08.2012 19:25 20,5 C 52 % 0,0 l/m 1,3 km/h (1 Bft) N-NW 337 10,3 C 25,1 C 0,0 km/h (0 Bft)
14.08.2012 19:30 20,2 C 52 % 0,0 l/m 1,1 km/h (1 Bft) N-NO 22 10,0 C 24,9 C 1,9 km/h (1 Bft)
14.08.2012 19:35 19,9 C 53 % 0,0 l/m 1,1 km/h (1 Bft) O 90 10,0 C 23,6 C 0,0 km/h (0 Bft)
14.08.2012 19:40 19,7 C 53 % 0,0 l/m 0,6 km/h (0 Bft) NO 45 9,8 C 22,6 C 0,0 km/h (0 Bft)
14.08.2012 19:45 19,4 C 55 % 0,0 l/m 0,2 km/h (0 Bft) N 360 10,1 C 21,3 C 0,0 km/h (0 Bft)
14.08.2012 19:50 19,2 C 55 % 0,0 l/m 0,2 km/h (0 Bft) N 360 9,9 C 20,6 C 0,0 km/h (0 Bft)
14.08.2012 19:55 19,0 C 55 % 0,0 l/m 0,3 km/h (0 Bft) O 90 9,8 C 19,8 C 0,0 km/h (0 Bft)
14.08.2012 20:00 18,9 C 56 % 0,0 l/m 0,5 km/h (0 Bft) NO 45 9,9 C 19,5 C 0,0 km/h (0 Bft)
14.08.2012 20:05 18,8 C 56 % 0,0 l/m 0,6 km/h (0 Bft) N-NW 337 9,8 C 19,7 C 0,0 km/h (0 Bft)
14.08.2012 20:10 18,6 C 56 % 0,0 l/m 0,8 km/h (0 Bft) N-NW 337 9,6 C 19,5 C 2,3 km/h (1 Bft)
14.08.2012 20:15 18,4 C 56 % 0,0 l/m 0,6 km/h (0 Bft) N 360 9,5 C 18,9 C 0,0 km/h (0 Bft)
14.08.2012 20:20 18,3 C 56 % 0,0 l/m 0,6 km/h (0 Bft) N 360 9,4 C 18,6 C 2,7 km/h (1 Bft)
14.08.2012 20:25 18,1 C 57 % 0,0 l/m 0,6 km/h (0 Bft) N 360 9,4 C 18,1 C 1,9 km/h (1 Bft)
14.08.2012 20:30 17,9 C 58 % 0,0 l/m 1,0 km/h (0 Bft) N-NW 337 9,5 C 17,9 C 0,0 km/h (0 Bft)
14.08.2012 20:35 17,7 C 59 % 0,0 l/m 0,8 km/h (0 Bft) N 360 9,6 C 17,5 C 0,0 km/h (0 Bft)
14.08.2012 20:40 17,3 C 60 % 0,0 l/m 0,5 km/h (0 Bft) N-NW 337 9,5 C 17,1 C 1,9 km/h (1 Bft)
14.08.2012 20:45 17,1 C 60 % 0,0 l/m 0,3 km/h (0 Bft) N 360 9,3 C 16,7 C 1,6 km/h (1 Bft)
14.08.2012 20:50 16,9 C 62 % 0,0 l/m 0,5 km/h (0 Bft) N 360 9,6 C 16,6 C 0,0 km/h (0 Bft)
14.08.2012 20:55 17,1 C 62 % 0,0 l/m 0,3 km/h (0 Bft) N 360 9,8 C 16,4 C 0,0 km/h (0 Bft)
14.08.2012 21:00 17,1 C 61 % 0,0 l/m 0,3 km/h (0 Bft) S-SW 202 9,5 C 16,3 C 0,0 km/h (0 Bft)
14.08.2012 21:05 17,1 C 61 % 0,0 l/m 0,3 km/h (0 Bft) NW 315 9,5 C 16,3 C 1,8 km/h (1 Bft)
14.08.2012 21:10 17,0 C 62 % 0,0 l/m 0,3 km/h (0 Bft) O 90 9,7 C 16,2 C 0,0 km/h (0 Bft)
14.08.2012 21:15 16,4 C 64 % 0,0 l/m 0,2 km/h (0 Bft) N 360 9,6 C 16,0 C 0,0 km/h (0 Bft)
14.08.2012 21:20 16,0 C 65 % 0,0 l/m 0,0 km/h (0 Bft) NO 45 9,4 C 15,8 C 0,0 km/h (0 Bft)
14.08.2012 21:25 16,5 C 64 % 0,0 l/m 0,3 km/h (0 Bft) N-NO 22 9,7 C 15,7 C 2,1 km/h (1 Bft)
14.08.2012 21:30 16,5 C 63 % 0,0 l/m 0,5 km/h (0 Bft) NO 45 9,4 C 15,8 C 0,0 km/h (0 Bft)
14.08.2012 21:35 16,0 C 64 % 0,0 l/m 0,5 km/h (0 Bft) NO 45 9,2 C 15,7 C 0,0 km/h (0 Bft)
14.08.2012 21:40 15,5 C 66 % 0,0 l/m 0,0 km/h (0 Bft) NO 45 9,2 C 15,4 C 0,0 km/h (0 Bft)
14.08.2012 21:45 15,8 C 67 % 0,0 l/m 0,0 km/h (0 Bft) N-NO 22 9,7 C 15,1 C 0,0 km/h (0 Bft)
14.08.2012 21:50 15,7 C 67 % 0,0 l/m 0,0 km/h (0 Bft) O 90 9,6 C 15,0 C 0,0 km/h (0 Bft)
14.08.2012 21:55 15,1 C 68 % 0,0 l/m 0,0 km/h (0 Bft) S 180 9,2 C 14,9 C 0,0 km/h (0 Bft)
14.08.2012 22:00 14,9 C 69 % 0,0 l/m 0,0 km/h (0 Bft) W 270 9,3 C 14,7 C 0,0 km/h (0 Bft)
14.08.2012 22:05 14,6 C 69 % 0,0 l/m 0,0 km/h (0 Bft) S 180 9,0 C 14,4 C 0,0 km/h (0 Bft)
14.08.2012 22:10 14,5 C 69 % 0,0 l/m 0,0 km/h (0 Bft) S 180 8,9 C 14,1 C 0,0 km/h (0 Bft)
14.08.2012 22:15 14,1 C 69 % 0,0 l/m 0,0 km/h (0 Bft) S-SO 157 8,5 C 13,7 C 0,0 km/h (0 Bft)
14.08.2012 22:20 14,1 C 70 % 0,0 l/m 0,0 km/h (0 Bft) S-SO 157 8,7 C 13,5 C 0,0 km/h (0 Bft)
14.08.2012 22:25 13,8 C 71 % 0,0 l/m 0,0 km/h (0 Bft) N 360 8,6 C 13,4 C 0,0 km/h (0 Bft)
14.08.2012 22:30 14,1 C 70 % 0,0 l/m 0,2 km/h (0 Bft) NO 45 8,7 C 13,3 C 0,0 km/h (0 Bft)
14.08.2012 22:35 14,0 C 70 % 0,0 l/m 0,2 km/h (0 Bft) SO 135 8,6 C 13,4 C 0,0 km/h (0 Bft)
14.08.2012 22:40 13,7 C 70 % 0,0 l/m 0,0 km/h (0 Bft) SO 135 8,3 C 13,2 C 0,0 km/h (0 Bft)
14.08.2012 22:45 13,6 C 72 % 0,0 l/m 0,0 km/h (0 Bft) NO 45 8,6 C 13,0 C 1,6 km/h (1 Bft)
14.08.2012 22:50 13,9 C 72 % 0,0 l/m 0,2 km/h (0 Bft) NO 45 8,9 C 13,0 C 0,0 km/h (0 Bft)
14.08.2012 22:55 13,8 C 73 % 0,0 l/m 0,2 km/h (0 Bft) W-SW 247 9,0 C 12,8 C 0,0 km/h (0 Bft)
14.08.2012 23:00 13,3 C 73 % 0,0 l/m 0,0 km/h (0 Bft) N-NO 22 8,6 C 12,8 C 0,0 km/h (0 Bft)
14.08.2012 23:05 13,7 C 73 % 0,0 l/m 0,0 km/h (0 Bft) N-NO 22 8,9 C 12,7 C 0,0 km/h (0 Bft)
14.08.2012 23:10 13,9 C 73 % 0,0 l/m 0,2 km/h (0 Bft) O 90 9,1 C 12,7 C 0,0 km/h (0 Bft)
14.08.2012 23:15 13,2 C 73 % 0,0 l/m 0,2 km/h (0 Bft) SO 135 8,5 C 12,6 C 0,0 km/h (0 Bft)
14.08.2012 23:20 13,0 C 74 % 0,0 l/m 0,0 km/h (0 Bft) N 360 8,5 C 12,5 C 0,0 km/h (0 Bft)
14.08.2012 23:25 13,0 C 75 % 0,0 l/m 0,0 km/h (0 Bft) NO 45 8,7 C 12,3 C 0,0 km/h (0 Bft)
14.08.2012 23:30 13,1 C 76 % 0,0 l/m 0,0 km/h (0 Bft) N-NO 22 9,0 C 12,3 C 0,0 km/h (0 Bft)
14.08.2012 23:35 12,7 C 76 % 0,0 l/m 0,0 km/h (0 Bft) S-SW 202 8,6 C 12,2 C 0,0 km/h (0 Bft)
14.08.2012 23:40 12,5 C 76 % 0,0 l/m 0,0 km/h (0 Bft) S-SW 202 8,4 C 12,0 C 0,0 km/h (0 Bft)
14.08.2012 23:45 12,4 C 77 % 0,0 l/m 0,0 km/h (0 Bft) W 270 8,5 C 11,9 C 0,0 km/h (0 Bft)
14.08.2012 23:50 12,4 C 78 % 0,0 l/m 0,0 km/h (0 Bft) N-NW 337 8,7 C 11,8 C 0,0 km/h (0 Bft)
14.08.2012 23:55 12,4 C 78 % 0,0 l/m 0,0 km/h (0 Bft) S 180 8,7 C 11,7 C 0,0 km/h (0 Bft)
_ Min-Zeit 04:40 13:45 - 23:55 - - 13:35 04:50 23:55
Minimum _ 9,2 C 32 % - 0,0 km/h (0 Bft) - - 6,5 C 8,6 C 0,0 km/h (0 Bft)
_ Max-Zeit 15:30 07:20 23:55 11:10 - - 07:50 17:25 12:35
Maximum _ 25,5 C 89 % 0,0 l/m 6,3 km/h
W-SW (2 Bft)
- - 14,2 C 28,0 C 14,5 km/h
W-SW (3 Bft)
Durchschnitt _ 17,5 C 62 % #0,0 l/m 1,8 km/h (1 Bft) W-SW - 9,3 C 18,9 C 2,5 km/h (1 Bft)